Wind_Speed
37 40 46 49 52 52 53 50 45 47 54 52 51 55 62 66 70 74 77 78 79 83 86 90 94 99 103 106 107 109 112 114 118 122 123 127 128 122 112 109 115 116 115 109
40 39 45 46 49 52 55 55 53 51 57 57 53 49 53 61 66 73 75 78 81 84 88 92 96 101 105 108 110 112 115 120 121 122 124 121 113 106 109 113 115 110 107 108
43 42 42 42 45 46 51 57 59 55 58 57 52 48 55 62 66 68 71 74 79 84 90 94 99 104 107 110 113 116 118 118 118 118 110 105 104 110 111 110 105 106 108 111
41 47 46 44 43 43 47 51 51 53 57 58 61 57 62 68 71 74 77 81 86 90 93 97 101 105 108 111 113 113 112 111 105 101 100 106 109 109 106 103 106 108 110 113
48 48 45 46 47 44 39 44 44 46 47 48 62 60 67 72 77 80 84 86 89 93 97 99 101 103 104 105 105 105 98 95 96 101 105 106 106 102 103 105 109 110 111 114
52 49 46 47 47 45 44 43 44 43 44 49 56 59 68 73 76 79 83 85 87 91 93 93 94 95 95 94 89 88 91 96 101 103 103 99 98 102 105 108 109 111 113 117
55 54 51 50 48 47 50 50 46 45 46 48 52 54 58 63 65 68 73 76 77 80 80 80 81 81 82 83 86 90 96 101 100 96 94 97 102 104 106 108 110 112 116 120
53 54 52 52 53 53 52 51 50 49 51 52 56 54 56 56 60 63 65 66 67 69 71 72 75 78 82 85 91 95 96 92 90 93 97 100 102 103 105 108 111 115 120 122
49 53 52 54 54 54 53 53 54 55 54 54 56 60 62 63 64 63 64 65 67 69 71 75 78 82 87 90 92 89 85 87 91 96 99 100 102 104 106 110 113 118 120 114
50 53 53 55 56 55 54 53 55 57 57 57 59 62 62 63 64 66 67 67 68 73 77 81 84 86 89 85 80 82 86 91 93 97 98 100 101 104 109 113 117 118 110 102
50 56 56 55 56 57 59 61 61 60 61 61 61 63 64 66 66 67 69 72 76 80 82 83 83 81 77 77 80 85 90 92 95 97 98 100 104 108 112 115 113 106 99 91
44 48 52 54 58 58 56 56 61 63 64 64 63 63 64 66 68 71 74 77 78 78 79 76 71 72 74 80 85 88 91 93 96 96 99 103 107 110 113 110 100 94 89 88
34 36 39 41 44 47 50 53 57 60 61 60 61 63 64 67 70 72 74 73 71 67 64 66 69 74 79 83 86 89 93 93 94 96 101 105 110 111 107 98 89 86 85 84
32 33 34 34 35 39 41 43 46 49 52 56 58 60 61 63 63 63 61 59 58 61 64 70 74 78 81 84 87 90 92 93 96 99 102 106 106 102 94 87 85 84 82 82
33 32 30 29 31 34 36 38 40 40 41 44 47 50 51 51 52 53 54 56 61 64 69 74 77 80 84 85 87 90 92 94 99 102 103 101 95 89 84 82 81 80 80 80
30 29 29 29 30 32 34 35 36 37 38 40 42 44 46 47 49 53 57 60 64 69 73 77 80 82 82 86 88 91 95 98 102 102 100 90 83 81 78 80 78 77 76 73
31 30 28 30 31 32 33 34 36 38 40 42 45 47 49 51 54 56 60 65 69 72 76 79 77 80 84 86 89 94 97 99 98 94 86 81 77 75 73 72 72 72 69 68
27 29 29 30 31 32 35 38 40 42 44 47 49 51 53 55 57 60 63 67 71 73 73 74 78 82 85 88 93 94 94 94 90 84 78 73 71 69 68 67 65 67 70 72
24 24 25 26 27 29 33 35 38 40 43 46 48 51 53 56 60 63 65 68 69 69 72 76 80 83 87 91 93 94 93 88 81 75 71 66 64 62 62 64 67 70 71 70
26 26 27 29 31 33 36 37 38 41 43 45 45 47 50 53 58 61 65 64 66 70 74 77 81 85 89 91 92 91 86 78 72 65 62 60 63 64 67 70 71 69 67 65
27 28 31 33 35 36 36 40 43 45 45 46 48 49 51 54 57 57 59 63 68 74 76 81 84 87 89 89 88 84 77 70 66 62 62 65 67 70 71 71 68 65 61 59
32 32 35 36 36 38 40 42 44 45 47 48 50 52 54 56 59 59 63 68 72 75 79 82 83 85 86 85 83 77 70 65 62 63 66 70 73 75 72 67 63 60 58 57
37 37 40 39 39 41 43 46 48 49 50 52 54 55 56 58 61 65 69 71 76 78 80 80 83 83 84 82 78 71 65 63 65 67 71 75 76 71 66 63 60 57 55 53
42 42 44 43 42 43 46 51 51 55 56 55 55 57 58 61 65 69 70 74 76 77 80 82 83 84 83 79 73 66 64 64 66 69 74 75 73 68 64 61 56 53 51 49
44 43 45 43 45 46 50 53 54 59 59 57 56 59 61 64 67 70 73 74 75 80 81 83 83 83 80 74 68 65 64 66 68 72 74 73 70 67 62 57 54 51 48 46
41 41 44 47 48 49 53 56 58 63 59 57 58 60 63 66 69 72 73 76 78 83 82 82 83 81 77 70 66 64 65 67 69 72 72 69 68 65 59 54 50 48 45 41
Wind_Direction
257 260 255 255 254 257 261 263 267 265 264 265 267 264 268 272 274 276 277 279 282 284 287 290 292 294 295 298 300 300 301 302 304 303 305 306 309 311 311 312 311 311 311 313
260 264 259 261 260 259 263 266 270 267 266 270 269 272 275 276 278 278 281 283 284 285 286 288 291 293 294 296 297 299 301 302 303 305 306 309 309 311 311 311 311 312 312 313
260 264 266 266 268 268 267 267 269 272 275 278 280 281 281 280 279 281 282 285 286 287 288 289 290 292 294 296 298 299 301 303 306 307 308 309 311 310 311 311 311 311 313 314
264 265 267 271 276 275 273 272 273 274 276 279 283 284 283 283 284 285 286 286 286 288 289 290 293 294 296 298 300 302 304 307 307 308 310 310 310 310 312 311 312 313 314 315
262 266 270 273 274 278 279 279 279 279 283 284 278 279 277 279 281 284 285 286 286 287 289 291 293 296 299 300 303 305 306 307 309 309 310 310 311 311 312 312 313 314 314 313
262 267 270 268 269 273 276 278 279 284 284 280 279 281 278 279 280 281 283 285 287 288 290 294 298 299 301 303 306 308 307 308 308 309 310 310 310 312 313 313 313 313 314 315
262 263 264 266 267 269 271 275 280 280 280 281 281 281 279 280 285 286 286 288 292 295 296 299 301 302 305 306 306 307 307 308 310 310 310 311 312 312 313 314 314 314 316 318
257 260 264 265 267 268 272 274 276 276 277 282 284 286 288 289 289 291 293 295 296 299 301 302 304 305 305 306 306 307 307 309 309 310 311 312 312 313 314 315 315 316 317 318
258 259 261 264 268 271 273 274 275 278 280 281 284 286 288 290 293 294 295 297 299 301 303 304 304 304 305 305 305 306 307 309 310 310 312 312 312 314 314 315 317 316 316 318
258 262 264 267 272 275 276 278 281 282 282 284 285 286 288 289 290 292 294 297 300 301 302 303 304 303 304 305 305 307 309 310 311 312 312 312 314 315 316 317 315 315 317 319
259 259 262 266 271 275 278 279 279 280 282 282 283 285 286 288 291 294 296 299 299 301 302 302 302 303 304 306 309 309 310 311 312 312 313 313 314 316 316 314 315 317 318 320
265 266 266 267 270 273 276 277 277 280 282 284 286 288 289 291 292 294 295 297 299 301 302 303 303 305 308 309 310 311 311 312 314 314 314 314 314 314 314 314 317 319 321 323
268 270 272 272 271 272 274 276 277 278 281 285 288 291 293 293 294 295 297 298 300 302 302 304 307 309 309 311 312 312 313 314 314 314 314 314 314 314 315 317 319 322 322 323
270 274 278 279 277 273 274 278 281 283 284 286 288 289 290 292 293 296 298 299 301 304 307 308 309 311 312 312 312 313 314 314 314 314 315 313 314 314 317 319 322 323 322 323
270 273 275 279 281 279 280 282 285 288 289 288 288 289 291 292 295 297 300 304 306 308 309 311 313 313 313 314 314 314 314 315 314 314 313 314 315 316 319 321 322 322 322 324
275 278 283 286 289 289 288 289 290 290 289 290 290 293 296 300 303 305 306 308 310 311 313 314 314 314 315 315 316 315 315 315 315 316 316 317 318 318 320 320 322 323 325 328
280 282 286 287 290 291 293 294 297 299 301 303 304 305 306 306 307 308 309 310 312 313 314 313 315 316 316 316 316 316 316 315 317 318 319 319 319 320 320 321 323 326 330 332
288 288 289 291 294 298 300 303 303 304 304 304 304 305 305 306 307 308 310 312 313 314 315 317 318 317 316 316 317 317 318 319 320 321 321 321 321 321 322 325 328 329 331 331
284 285 294 301 304 307 308 310 311 311 313 312 310 308 307 307 308 311 312 314 314 316 319 318 317 318 318 318 318 320 322 323 322 323 323 324 324 326 328 329 329 330 331 332
280 288 296 302 305 309 313 314 314 314 315 315 314 313 312 312 312 312 313 315 318 319 317 318 319 320 320 321 322 323 325 325 326 327 328 329 329 329 330 329 329 329 331 334
277 286 294 298 304 310 310 309 310 312 313 313 313 314 315 316 315 317 319 321 320 319 319 320 322 321 323 323 325 327 326 327 329 330 329 329 329 329 330 331 331 331 332 334
275 284 293 296 304 307 308 310 314 315 315 315 315 315 315 316 318 321 321 321 320 322 321 322 321 322 324 327 328 329 328 328 327 327 331 332 332 332 331 332 332 333 333 333
273 281 286 293 300 305 309 312 317 319 317 315 315 316 318 318 320 321 322 322 323 322 321 322 323 324 327 329 330 329 327 325 325 330 331 331 331 333 333 333 332 333 333 334
273 278 284 290 296 305 307 313 316 319 319 316 317 319 319 319 320 321 322 324 324 323 324 324 326 328 331 330 330 327 324 325 328 329 330 330 332 333 333 332 333 333 334 334
275 278 282 287 295 302 305 310 312 318 318 318 317 318 319 321 320 321 324 324 325 326 328 328 328 330 331 330 328 324 326 327 329 329 329 331 331 332 333 332 334 335 335 336
273 277 281 289 296 300 305 310 311 315 317 318 317 318 320 320 321 323 323 326 329 329 329 329 329 329 329 328 324 325 327 329 330 330 330 330 331 332 333 334 335 335 336 339
Height
10791 10793 10793 10794 10795 10798 10801 10805 10812 10811 10805 10807 10811 10816 10811 10808 10802 10796 10790 10787 10784 10774 10767 10757 10746 10733 10722 10713 10709 10703 10692 10682 10672 10658 10646 10630 10617 10603 10587 10572 10556 10541 10525 10508
10785 10786 10785 10787 10790 10792 10794 10796 10799 10803 10793 10794 10801 10807 10805 10798 10792 10782 10780 10775 10769 10762 10754 10743 10734 10723 10712 10704 10697 10687 10678 10666 10651 10641 10626 10613 10598 10586 10571 10554 10535 10520 10504 10489
10778 10779 10780 10781 10782 10785 10786 10788 10787 10791 10786 10786 10791 10798 10793 10782 10776 10771 10766 10761 10755 10747 10740 10732 10721 10711 10701 10692 10683 10673 10662 10648 10635 10622 10607 10593 10580 10566 10550 10533 10517 10502 10486 10470
10772 10769 10772 10777 10776 10778 10778 10776 10780 10780 10780 10779 10776 10786 10780 10767 10759 10755 10751 10745 10740 10733 10725 10717 10709 10699 10688 10679 10668 10656 10643 10632 10617 10603 10589 10575 10560 10545 10531 10515 10498 10481 10465 10448
10762 10764 10769 10769 10767 10770 10770 10768 10770 10770 10770 10772 10765 10765 10765 10755 10746 10740 10736 10732 10726 10719 10712 10704 10697 10688 10677 10664 10652 10640 10628 10613 10600 10587 10573 10557 10541 10526 10512 10496 10480 10462 10446 10428
10753 10758 10761 10760 10760 10761 10762 10760 10760 10762 10761 10759 10752 10752 10752 10743 10736 10728 10721 10717 10713 10707 10700 10692 10683 10673 10661 10650 10637 10625 10612 10599 10585 10571 10556 10540 10526 10510 10494 10476 10460 10443 10426 10406
10744 10747 10748 10749 10751 10752 10750 10752 10755 10755 10750 10747 10743 10742 10735 10729 10726 10720 10711 10705 10701 10695 10687 10679 10670 10658 10648 10637 10625 10612 10597 10584 10570 10555 10541 10525 10509 10493 10475 10458 10440 10422 10403 10384
10735 10736 10739 10740 10741 10740 10743 10743 10743 10743 10739 10736 10728 10728 10722 10718 10712 10708 10702 10696 10689 10683 10675 10666 10657 10647 10635 10623 10611 10596 10583 10569 10555 10541 10525 10510 10492 10476 10459 10440 10423 10404 10384 10366
10726 10726 10730 10729 10730 10731 10734 10733 10731 10731 10730 10728 10720 10714 10708 10705 10702 10696 10690 10684 10677 10670 10662 10653 10644 10634 10622 10611 10596 10581 10569 10555 10541 10525 10509 10492 10475 10459 10442 10424 10405 10386 10368 10349
10718 10717 10719 10720 10721 10723 10724 10723 10721 10718 10719 10717 10710 10704 10700 10695 10690 10685 10679 10673 10666 10658 10650 10641 10631 10620 10608 10595 10582 10569 10554 10540 10525 10509 10492 10475 10458 10442 10424 10406 10388 10369 10351 10333
10708 10709 10709 10712 10712 10713 10713 10712 10709 10707 10704 10703 10702 10695 10693 10685 10679 10674 10667 10661 10653 10646 10638 10628 10616 10604 10593 10581 10568 10554 10539 10524 10508 10491 10475 10458 10441 10425 10407 10389 10370 10352 10334 10318
10699 10699 10700 10703 10703 10703 10702 10700 10698 10695 10693 10690 10688 10686 10681 10676 10668 10662 10655 10648 10640 10632 10622 10612 10600 10591 10579 10567 10553 10538 10523 10506 10490 10474 10458 10442 10424 10408 10390 10370 10353 10337 10320 10304
10692 10691 10692 10693 10693 10691 10690 10689 10686 10684 10682 10679 10676 10673 10669 10662 10655 10649 10642 10634 10627 10618 10609 10599 10588 10577 10564 10551 10536 10521 10506 10491 10475 10460 10442 10424 10406 10388 10370 10353 10337 10322 10306 10291
10685 10685 10685 10685 10683 10682 10682 10681 10678 10675 10673 10670 10667 10662 10656 10650 10644 10637 10630 10623 10615 10607 10597 10586 10575 10563 10549 10536 10521 10506 10490 10475 10458 10443 10426 10407 10389 10370 10352 10337 10322 10308 10293 10279
10679 10679 10678 10677 10676 10675 10675 10673 10670 10668 10665 10661 10657 10652 10647 10641 10634 10628 10621 10613 10604 10595 10584 10572 10560 10547 10534 10520 10506 10490 10473 10458 10441 10425 10408 10389 10369 10352 10337 10323 10310 10296 10282 10267
10672 10671 10671 10670 10669 10668 10666 10664 10662 10660 10656 10652 10647 10642 10637 10631 10624 10617 10610 10601 10592 10581 10570 10558 10546 10532 10519 10505 10489 10473 10457 10440 10422 10404 10386 10368 10353 10338 10324 10311 10298 10284 10271 10257
10664 10664 10665 10664 10663 10661 10658 10656 10654 10650 10646 10641 10636 10631 10626 10619 10612 10605 10597 10588 10579 10568 10557 10545 10532 10519 10503 10489 10473 10457 10440 10421 10404 10385 10368 10353 10339 10325 10313 10300 10287 10274 10261 10249
10658 10657 10658 10658 10657 10655 10652 10649 10645 10641 10638 10632 10627 10622 10616 10609 10601 10594 10586 10577 10567 10556 10545 10532 10518 10504 10489 10474 10458 10441 10423 10404 10385 10369 10355 10341 10328 10316 10304 10291 10279 10266 10253 10239
10652 10651 10651 10652 10651 10649 10645 10642 10638 10633 10628 10622 10617 10611 10606 10599 10590 10583 10574 10565 10555 10544 10532 10520 10506 10491 10475 10459 10441 10424 10405 10389 10372 10357 10344 10331 10319 10308 10296 10284 10272 10259 10245 10231
10646 10645 10644 10643 10642 10642 10638 10633 10629 10625 10621 10615 10609 10603 10597 10590 10582 10573 10565 10555 10543 10532 10520 10507 10492 10477 10461 10444 10426 10408 10391 10375 10361 10348 10335 10324 10313 10300 10288 10276 10263 10251 10238 10225
10639 10639 10637 10636 10635 10635 10632 10628 10624 10619 10613 10607 10601 10594 10588 10581 10574 10564 10554 10544 10533 10521 10507 10493 10479 10462 10446 10429 10412 10395 10378 10364 10351 10339 10328 10316 10304 10292 10279 10266 10254 10243 10231 10220
10634 10632 10631 10629 10629 10627 10624 10620 10616 10610 10604 10598 10591 10585 10578 10571 10563 10554 10544 10533 10521 10508 10494 10480 10465 10449 10433 10415 10399 10382 10367 10355 10343 10332 10319 10307 10294 10281 10268 10257 10246 10235 10224 10213
10626 10625 10623 10623 10622 10618 10614 10609 10605 10599 10593 10587 10581 10575 10568 10560 10551 10542 10532 10520 10508 10495 10481 10465 10451 10435 10419 10401 10385 10371 10358 10347 10334 10322 10310 10297 10284 10271 10260 10249 10239 10227 10217 10207
10618 10617 10615 10615 10613 10611 10606 10601 10596 10590 10583 10577 10570 10563 10556 10547 10539 10530 10519 10507 10494 10480 10465 10450 10435 10420 10404 10388 10375 10362 10350 10338 10325 10313 10301 10288 10275 10263 10252 10241 10232 10221 10211 10201
10609 10609 10606 10606 10605 10603 10598 10593 10587 10580 10573 10566 10560 10553 10545 10537 10528 10517 10506 10494 10480 10465 10451 10436 10421 10407 10393 10379 10366 10354 10342 10330 10318 10305 10292 10279 10266 10255 10245 10234 10224 10214 10205 10196
10601 10600 10598 10597 10596 10592 10588 10583 10577 10570 10564 10557 10550 10543 10536 10526 10516 10505 10493 10481 10467 10452 10439 10424 10410 10396 10382 10369 10356 10344 10332 10321 10310 10297 10284 10271 10259 10248 10237 10227 10218 10209 10199 10191